Tracking 29892 objects as of 21-Nov-2024
HD Live streaming from Space Station
objects crossing your sky now

ATLAS 5 CENTAUR R/B

Track ATLAS 5 CENTAUR R/B now!
10-day predictions


NORAD ID: 32379
Int'l Code: 2007-060B
Perigee: 276.6 km
Apogee: 13,154.2 km
Inclination: 60.8 °
Period: 248.3 minutes
Semi major axis: 13086 km
RCS: Unknown
Launch date: December 10, 2007
Source: United States (US)
Launch site: AIR FORCE EASTERN TEST RANGE (AFETR)

Note: This is a ROCKET BODY
Your satellite tracking list
Your tracking list is empty




NASA's NSSDC Master Catalog

Two Line Element Set (TLE):
1 32379U 07060B   24325.19541993  .00020044  00000-0  17602-2 0  9992
2 32379  60.7505 234.5610 4920209 283.8034  27.9160  5.79923758108025
Source of the keplerian elements: McCants